Location: Township of Marena
(38.1747°N, 99.6798°W)
Time: 11:41:57
(UTC+00:00)

Cosmos 1461 - Pass Details

Date: 26 October 2020
Orbit: 500 x 665 km, 65.0° (Epoch: 24 November)

Event Time Altitude Azimuth Distance (km) Brightness Sun altitude
Exits shadow 11:46:26 20° 242° (WSW) 1,452 4.5 -14.9°
Maximum altitude 11:49:14 44° 305° (NW) 883 3.4 -14.3°
Drops below altitude 10° 11:53:42 10° 18° (NNE) 2,057 5.9 -13.4°
Sets 11:56:09 0° 25° (NNE) 2,988 6.8 -13.0°
